Климино

Россия / Красноярский край     58°38′23″N   98°44′42″E
темп.,
°C
ветер,
м/с
пор.,
м/с
влажн.,
%
обл.,
%
осадки,
мм/ч
давл.,
гПа
погр.,
м
11 мая, вт
вт1101:00+6с1185100 0.2 102110
04:00+4с119213 0.0 102111
07:00+7св368127 0.0 1021460
10:00+9св4571100 0.2 10211017
13:00+7ссв567484 0.3 1022842
16:00+6св476379 0.1 1023946
19:00+7ссв364778 0.1 10221373
22:00+3св39715 0.0 1024332
12 мая, ср
ср1201:000ссв22854 0.0 102426
04:00−2ссв22875 0.0 102421
07:00+3ссв24655 0.0 1024437
10:00+7ссв344184 0.0 10221776
13:00+10ссв3432100 0.0 10212420
16:00+11св352899 0.0 10192530
19:00+9в253997 0.0 1019212
22:00+3юв22605 0.0 102015
13 мая, чт
чт1301:00+1юв11650 0.0 102110
04:000юв11700 0.0 102110
07:00+5ююв12518 0.0 1021255
10:00+11ю22355 0.0 10201425
13:00+14юз22284 0.0 10182009
16:00+14юз23265 0.0 10162256
19:00+13ююз23385 0.0 101568
22:00+6ю235158 0.0 101436
14 мая, пт
пт1401:00+4ю2257100 0.0 101435
04:00+3ююв2261100 0.0 101239
07:00+7ююв3947100 0.0 1011333
10:00+12ю4730100 0.0 10081477
13:00+15ююз4723100 0.0 10062158
16:00+16юз462596 0.0 10042353
19:00+14з474699 0.0 1003521
22:00+7з3791100 1.0 1006564
15 мая, сб
сб1501:00+7юз3889100 1.2 1006688
04:00+5зюз4893100 0.9 1006733
07:00+3сз41097100 5.3 1008684
10:00+6зсз686799 0.9 10101560
13:00+8з6840100 1.1 10102486
16:00+9з5736100 0.0 10102266
19:00+4сз38568 0.2 10091375
22:00